カタログに戻る

CZ-4C DEB

運用中LEO
NORAD 43421·DEBRIS·🇨🇳 China

打ち上げ Dec 10, 2014 から Jiuquan Satellite Launch Center

Loading…

次のパス (今後24時間)

TLE

古いSource: Space-Track

元期: Aug 29, 2026, 23:26 UTC

1 43421U 14080K   26241.97647771  .00000079  00000-0  18536-3 0  9992
2 43421  63.3849 140.1666 0384120  11.5494 349.4040 13.44801834499108

AllMySatでCZ-4C DEBをリアルタイム追跡

Download on the App Store